Location: Wyoming Infrared Observatory
(41.0971°N, 105.9765°W)
Time: 06:18:50
(UTC-06:00)

Amateur Radio Satellites - All Passes

Search period start: 05 September 2015 05:48
Search period end: 06 September 2015 05:48
Location: Wyoming Infrared Observatory, 41.0971°N, 105.9765°W

Satellite Date Start Highest point End Downlink Frequencies (MHz)
Time Altitude Azimuth
CUBESAT XI-V 05 Sep 06:00:23 06:04:49 52° 73° (ENE) 06:09:18 437.345
Cosmos 2499 05 Sep 06:00:38 06:08:04 30° 294° (WNW) 06:15:27 435.465 / 435.565
CUTE-I 05 Sep 06:04:28 06:06:29 12° 87° (E) 06:08:50 437.470
YUBILEINY 05 Sep 06:09:01 06:12:26 13° 54° (NE) 06:16:28 435.215
STRAND 1 05 Sep 06:10:36 06:14:15 21° 65° (ENE) 06:18:03 437.568
VERMONT LUNAR 05 Sep 06:18:48 06:21:32 32° 201° (SSW) 06:24:14 437.305
ISS 05 Sep 06:41:19 06:43:40 19° 133° (SE) 06:46:06 145.825
AO-7 05 Sep 06:46:37 06:53:48 33° 301° (WNW) 07:00:49 29.400- 29.500
PHONESAT 2.4 05 Sep 06:58:05 07:01:31 81° 184° (S) 07:04:55 2401.200-2431.200
Cubesat XI-IV 05 Sep 06:58:41 07:03:43 42° 98° (E) 07:08:46 437.490
Cosmos 2491 05 Sep 07:03:00 07:04:51 11° 75° (ENE) 07:07:28 435.465 / 435.565
SO-50 05 Sep 07:09:06 07:10:15 11° 31° (NNE) 07:11:35 436.795
PRISM 05 Sep 07:31:31 07:35:37 86° 72° (ENE) 07:39:43 437.425
CUBESAT XI-V 05 Sep 07:39:52 07:42:38 15° 271° (W) 07:45:13 437.345
CUTE-I 05 Sep 07:41:56 07:47:18 80° 285° (WNW) 07:52:38 437.470
STRAND 1 05 Sep 07:48:12 07:53:09 49° 261° (W) 07:58:05 437.568
YUBILEINY 05 Sep 08:02:42 08:11:30 66° 78° (ENE) 08:20:14 435.215
DOVE 4 05 Sep 08:12:30 08:15:38 16° 88° (E) 08:18:58 437.250
AIST 1 05 Sep 08:14:18 08:18:31 69° 279° (W) 08:22:47
ISS 05 Sep 08:16:43 08:19:52 48° 329° (NNW) 08:23:03 145.825
BRITE-PL 05 Sep 08:17:59 08:23:27 51° 98° (E) 08:29:00 437.365/2234.400
GOMX 1 05 Sep 08:21:58 08:26:54 34° 94° (E) 08:31:50 467.674
Cosmos 2504 05 Sep 08:22:36 08:24:39 11° 53° (NE) 08:27:18 435.465 / 435.565
HO-68 05 Sep 08:34:27 08:39:58 24° 92° (E) 08:45:41 435.675
CUTE 1.7 + AOD 2 05 Sep 08:35:10 08:37:17 14° 89° (E) 08:39:36 437.475
PHONESAT 2.4 05 Sep 08:36:02 08:39:13 37° 201° (SSW) 08:42:24 2401.200-2431.200
Cubesat XI-IV 05 Sep 08:39:15 08:43:38 26° 294° (WNW) 08:47:53 437.490
SO-50 05 Sep 08:47:12 08:52:02 51° 52° (NE) 08:56:46 436.795
CANX-2 05 Sep 08:49:02 08:52:21 22° 93° (E) 08:55:43 2200.000
Cosmos 2491 05 Sep 08:51:40 09:00:14 67° 93° (E) 09:08:52 435.465 / 435.565
SEEDS 05 Sep 09:01:29 09:04:41 22° 93° (E) 09:07:59 437.485
COMPASS 1 05 Sep 09:14:49 09:18:09 24° 94° (E) 09:21:32 437.405
CUBEBUG 2 05 Sep 09:16:34 09:17:47 11° 86° (E) 09:19:17 437.445
DANDE 05 Sep 09:16:39 09:21:01 16° 59° (ENE) 09:26:04 436.750
M-CUBED/EXP-1 PRIME 05 Sep 09:19:40 09:21:45 13° 59° (ENE) 09:24:00 437.505
AAUSAT CUBESAT 2 05 Sep 09:20:33 09:23:49 23° 94° (E) 09:27:09 437.432
CUTE-I 05 Sep 09:25:02 09:26:37 11° 301° (WNW) 09:27:53 437.470
Oscar 11 05 Sep 09:35:14 09:37:40 15° 90° (E) 09:40:17 145.826/435.025
PCSat 05 Sep 09:45:19 09:50:22 39° 52° (NE) 09:55:27 145.827
DOVE 4 05 Sep 09:48:37 09:53:54 64° 286° (WNW) 09:59:02 437.250
UNISAT 6 05 Sep 09:49:03 09:52:38 23° 67° (ENE) 09:56:20 437.425
CUSAT 1 05 Sep 09:52:58 10:00:16 38° 70° (ENE) 10:07:46 437.405
ISS 05 Sep 09:54:49 09:56:53 15° 348° (NNW) 09:58:56 145.825
BRITE-PL 05 Sep 09:57:10 10:01:38 24° 293° (WNW) 10:06:01 437.365/2234.400
CINEMA 3 05 Sep 09:57:14 10:02:13 73° 100° (E) 10:07:00 145.822/145.860
GOMX 1 05 Sep 10:00:02 10:04:57 34° 291° (WNW) 10:09:46 467.674
YUBILEINY 05 Sep 10:00:40 10:07:42 27° 277° (W) 10:14:24 435.215
CUTE 1.7 + AOD 2 05 Sep 10:09:27 10:13:32 48° 287° (WNW) 10:17:34 437.475
Cosmos 2504 05 Sep 10:10:54 10:19:13 60° 77° (ENE) 10:26:59 435.465 / 435.565
TIGRISAT 05 Sep 10:14:38 10:18:57 38° 71° (ENE) 10:23:20 435.000
NANOSAT C BR1 05 Sep 10:16:18 10:18:24 14° 65° (ENE) 10:20:42 145.865
QB50P2 05 Sep 10:19:00 10:21:29 16° 66° (ENE) 10:24:09 145.880/145.840
HO-68 05 Sep 10:21:09 10:28:17 64° 290° (WNW) 10:35:20 435.675
CANX-2 05 Sep 10:24:36 10:28:18 29° 290° (WNW) 10:31:56 2200.000
ZACube-1 05 Sep 10:28:23 10:32:33 38° 97° (E) 10:36:36 437.345
SO-50 05 Sep 10:28:36 10:32:15 20° 249° (WSW) 10:35:41 436.795
QB50P1 05 Sep 10:31:06 10:34:11 20° 67° (ENE) 10:37:23 145.935-145.965
FUNcube-1 05 Sep 10:31:22 10:35:32 40° 97° (E) 10:39:37 145.935
HUMSAT D 05 Sep 10:32:13 10:34:40 15° 90° (E) 10:37:16 437.325/437.525
ANTELSAT 05 Sep 10:33:34 10:38:12 62° 74° (ENE) 10:42:53 437.575/2403.000
SEEDS 05 Sep 10:36:50 10:40:31 30° 290° (WNW) 10:44:08 437.485
AUBIESAT-1 05 Sep 10:40:54 10:45:35 68° 70° (ENE) 10:50:09 437.475
DELFI C3 05 Sep 10:43:03 10:46:59 56° 100° (E) 10:50:53 145.870
UWE-3 05 Sep 10:46:37 10:51:11 83° 102° (ESE) 10:55:36 435.000/436.395/437.385
COMPASS 1 05 Sep 10:50:15 10:53:48 27° 290° (WNW) 10:57:16 437.405
CUBEBUG 2 05 Sep 10:50:29 10:55:06 70° 285° (WNW) 10:59:34 437.445
Cosmos 2491 05 Sep 10:50:46 10:57:56 27° 295° (WNW) 11:04:53 435.465 / 435.565
M-CUBED/EXP-1 PRIME 05 Sep 10:51:12 10:56:00 81° 253° (WSW) 11:00:41 437.505
AAUSAT CUBESAT 2 05 Sep 10:55:51 10:59:25 28° 290° (WNW) 11:02:54 437.432
DANDE 05 Sep 10:57:32 11:05:32 71° 78° (ENE) 11:14:04 436.750
Oscar 11 05 Sep 11:10:01 11:14:10 46° 287° (WNW) 11:18:15 145.826/435.025
DX 1 05 Sep 11:11:08 11:14:36 23° 94° (E) 11:18:09 434.975-435.025
BUGSAT 1 05 Sep 11:15:24 11:19:07 35° 71° (ENE) 11:22:56 437.445
UKube-1 05 Sep 11:15:34 11:19:00 23° 94° (E) 11:22:30 .
UNISAT 6 05 Sep 11:24:47 11:29:12 39° 263° (W) 11:33:36 437.425
PCSat 05 Sep 11:28:58 11:33:42 30° 250° (WSW) 11:38:19 145.827
DUCHIFAT 1 05 Sep 11:30:03 11:34:18 86° 77° (ENE) 11:38:35 145.980
ISS 05 Sep 11:32:27 11:34:17 14° 8° (N) 11:36:09 145.825
POLYITAN 1 05 Sep 11:33:50 11:38:06 81° 257° (WSW) 11:42:27 437.675
POPSAT HIP 1 05 Sep 11:34:20 11:38:36 82° 257° (WSW) 11:42:55 437.405
CUSAT 1 05 Sep 11:35:16 11:43:05 52° 267° (W) 11:50:47 437.405
CINEMA 3 05 Sep 11:36:13 11:38:48 14° 298° (WNW) 11:41:08 145.822/145.860
CUBEBUG 1 05 Sep 11:38:51 11:41:56 19° 92° (E) 11:45:09 437.445
NANOSAT C BR1 05 Sep 11:49:39 11:53:49 55° 260° (W) 11:58:01 145.865
TIGRISAT 05 Sep 11:52:08 11:55:49 22° 267° (W) 11:59:26 435.000
QB50P2 05 Sep 11:52:53 11:57:01 48° 261° (W) 12:01:11 145.880/145.840
AISAT 05 Sep 11:53:32 11:57:51 45° 99° (E) 12:02:10 437.250
ESTCUBE 1 05 Sep 11:59:29 12:03:42 38° 98° (E) 12:07:55 437.505/2401.250
Cosmos 2504 05 Sep 12:04:01 12:10:52 28° 277° (W) 12:17:08 435.465 / 435.565
ZACube-1 05 Sep 12:05:21 12:08:38 20° 293° (WNW) 12:11:45 437.345
QB50P1 05 Sep 12:05:54 12:09:50 35° 263° (W) 12:13:46 145.935-145.965
HUMSAT D 05 Sep 12:06:40 12:10:41 42° 287° (WNW) 12:14:35 437.325/437.525
FUNcube-1 05 Sep 12:08:23 12:11:35 19° 294° (WNW) 12:14:35 145.935
HO-68 05 Sep 12:11:42 12:14:48 13° 308° (NW) 12:17:30 435.675
ANTELSAT 05 Sep 12:13:01 12:15:28 13° 272° (W) 12:17:40 437.575/2403.000
AUBIESAT-1 05 Sep 12:18:21 12:20:41 13° 266° (W) 12:22:45 437.475
50 SAT 05 Sep 12:19:39 12:23:30 70° 285° (WNW) 12:27:17 437.505
DELFI C3 05 Sep 12:20:00 12:21:37 12° 295° (WNW) 12:23:02 145.870
VELOX 1 05 Sep 12:20:06 12:24:36 85° 103° (ESE) 12:29:04 145.980
UWE-3 05 Sep 12:26:05 12:27:03 10° 298° (WNW) 12:27:45 435.000/436.395/437.385
DANDE 05 Sep 12:41:38 12:48:14 27° 273° (W) 12:54:51 436.750
DX 1 05 Sep 12:46:58 12:50:54 32° 290° (WNW) 12:54:45 434.975-435.025
SPROUT 05 Sep 12:49:19 12:53:16 33° 96° (E) 12:57:13 437.525
GONETS M04 05 Sep 12:51:14 12:58:53 33° 68° (ENE) 13:06:43
UKube-1 05 Sep 12:51:17 12:55:10 31° 290° (WNW) 12:58:58 .
BUGSAT 1 05 Sep 12:51:48 12:54:44 18° 268° (W) 12:57:35 437.445
Gurwin Techsat 1B 05 Sep 12:58:04 12:59:41 12° 59° (ENE) 13:01:35 435.225
ISS 05 Sep 13:08:22 13:11:25 36° 28° (NNE) 13:14:27 145.825
Oscar 19 05 Sep 13:10:48 13:15:41 45° 71° (ENE) 13:20:40 437.125/150
CUBEBUG 1 05 Sep 13:14:19 13:18:28 39° 288° (WNW) 13:22:35 437.445
RS-15 05 Sep 13:30:38 13:31:50 10° 96° (E) 13:34:15 29.354- 29.394
AISAT 05 Sep 13:31:00 13:34:07 18° 294° (WNW) 13:37:05 437.250
TISAT 1 05 Sep 13:32:17 13:36:31 56° 100° (E) 13:40:42 437.305
BEESAT 3 05 Sep 13:34:40 13:38:17 32° 116° (ESE) 13:41:58 437.485
ESTCUBE 1 05 Sep 13:36:56 13:40:20 21° 293° (WNW) 13:43:38 437.505/2401.250
BEESAT 05 Sep 13:38:00 13:38:33 10° 87° (E) 13:39:25 436.000
JAS-2 05 Sep 13:41:06 13:46:50 24° 60° (ENE) 13:52:46 435.910
BEESAT 2 05 Sep 13:54:28 13:58:16 39° 117° (ESE) 14:02:09 435.950
Cosmos 2499 05 Sep 13:58:41 14:05:01 23° 62° (ENE) 14:11:20 435.465 / 435.565
VELOX 1 05 Sep 13:59:48 14:00:32 10° 298° (WNW) 14:01:01 145.980
SWISSCUBE 05 Sep 14:02:10 14:05:46 22° 93° (E) 14:09:29 437.505
AO-7 05 Sep 14:03:20 14:08:23 19° 51° (NE) 14:13:46 29.400- 29.500
ITAMSAT 1 05 Sep 14:21:08 14:26:08 53° 72° (ENE) 14:31:11 435.822/435.867
SPROUT 05 Sep 14:25:47 14:29:10 22° 292° (WNW) 14:32:26 437.525
Gurwin Techsat 1B 05 Sep 14:33:37 14:38:56 84° 77° (ENE) 14:44:17 435.225
ITUPSAT 1 05 Sep 14:42:38 14:47:15 50° 99° (E) 14:51:54 437.325
ISS 05 Sep 14:44:55 14:47:45 27° 225° (SW) 14:50:33 145.825
GONETS M04 05 Sep 14:47:39 14:56:13 56° 269° (W) 15:04:42
Oscar 19 05 Sep 14:51:18 14:55:19 22° 268° (W) 14:59:12 437.125/150
KKS-1 05 Sep 14:59:54 15:01:27 12° 88° (E) 15:03:17 437.445
AIST 2 05 Sep 15:06:50 15:10:53 46° 117° (ESE) 15:14:59 435.215
HORYU 2 05 Sep 15:09:22 15:12:25 19° 66° (ENE) 15:15:36 437.375
TISAT 1 05 Sep 15:09:36 15:11:50 14° 295° (WNW) 15:13:54 437.305
BEESAT 05 Sep 15:12:17 15:17:04 79° 286° (WNW) 15:21:49 436.000
BEESAT 3 05 Sep 15:12:50 15:16:15 25° 313° (NW) 15:19:39 437.485
JAS-2 05 Sep 15:23:19 15:31:08 81° 257° (WSW) 15:38:59 435.910
RS-15 05 Sep 15:31:30 15:42:05 62° 115° (ESE) 15:53:09 29.354- 29.394
BEESAT 2 05 Sep 15:33:13 15:36:28 22° 315° (NW) 15:39:40 435.950
SWISSCUBE 05 Sep 15:39:21 15:43:47 39° 290° (WNW) 15:48:11 437.505
Cosmos 2499 05 Sep 15:50:45 15:59:19 75° 265° (W) 16:07:11 435.465 / 435.565
AO-7 05 Sep 15:51:42 16:00:02 78° 70° (ENE) 16:08:23 29.400- 29.500
STARS 05 Sep 16:02:10 16:06:11 33° 97° (E) 16:10:12 437.465
ITAMSAT 1 05 Sep 16:02:23 16:06:01 18° 269° (W) 16:09:29 435.822/435.867
Gurwin Techsat 1B 05 Sep 16:17:46 16:19:42 11° 274° (W) 16:21:17 435.225
ITUPSAT 1 05 Sep 16:21:31 16:24:48 18° 295° (WNW) 16:27:57 437.325
KKS-1 05 Sep 16:34:08 16:38:36 64° 285° (WNW) 16:43:02 437.445
HORYU 2 05 Sep 16:44:27 16:48:46 44° 262° (W) 16:53:04 437.375
AIST 2 05 Sep 16:46:25 16:49:41 21° 316° (NW) 16:52:53 435.215
JAS-2 05 Sep 17:12:47 17:17:22 16° 276° (W) 17:21:27 435.910
MOZHAYETS 4 05 Sep 17:25:13 17:29:46 68° 101° (E) 17:34:18
CUTE-I 05 Sep 17:25:29 17:29:25 22° 65° (ENE) 17:33:30 437.470
STARS 05 Sep 17:38:55 17:42:28 23° 293° (WNW) 17:45:54 437.465
O/OREOS (USA 219) 05 Sep 17:40:12 17:43:52 25° 104° (ESE) 17:47:41 437.305
RS-15 05 Sep 17:44:39 17:55:05 44° 320° (NW) 18:05:51 29.354- 29.394
Cosmos 2499 05 Sep 17:47:13 17:51:01 13° 284° (WNW) 17:54:08 435.465 / 435.565
AO-7 05 Sep 17:47:25 17:53:45 22° 269° (W) 17:59:44 29.400- 29.500
CUBESAT XI-V 05 Sep 17:58:44 18:00:50 13° 88° (E) 18:03:12 437.345
Cubesat XI-IV 05 Sep 18:20:35 18:25:51 69° 74° (ENE) 18:31:09 437.490
AIST 1 05 Sep 18:21:41 18:25:24 27° 74° (ENE) 18:29:12
Cosmos 2491 05 Sep 19:02:24 19:10:01 33° 69° (ENE) 19:17:49 435.465 / 435.565
CUTE-I 05 Sep 19:04:04 19:09:12 49° 261° (W) 19:14:21 437.470
MOZHAYETS 4 05 Sep 19:04:20 19:06:29 13° 296° (WNW) 19:08:25
HO-68 05 Sep 19:04:23 19:09:04 20° 57° (ENE) 19:14:01 435.675
YUBILEINY 05 Sep 19:12:33 19:16:07 14° 77° (ENE) 19:20:23 435.215
PRISM 05 Sep 19:15:47 19:17:10 12° 89° (E) 19:18:47 437.425
DOVE 4 05 Sep 19:18:25 19:21:11 16° 63° (ENE) 19:24:14 437.250
O/OREOS (USA 219) 05 Sep 19:19:06 19:23:12 32° 300° (WNW) 19:27:18 437.305
BRITE-PL 05 Sep 19:29:04 19:33:25 50° 73° (ENE) 19:38:12 437.365/2234.400
CUTE 1.7 + AOD 2 05 Sep 19:29:21 19:30:30 11° 64° (ENE) 19:31:53 437.475
GOMX 1 05 Sep 19:30:12 19:34:17 31° 69° (ENE) 19:38:44 467.674
CUBESAT XI-V 05 Sep 19:34:09 19:38:46 61° 285° (WNW) 19:43:22 437.345
CANX-2 05 Sep 19:42:29 19:45:15 18° 67° (ENE) 19:48:10 2200.000
SEEDS 05 Sep 19:54:05 19:56:42 17° 67° (ENE) 19:59:27 437.485
STRAND 1 05 Sep 19:58:33 20:03:35 56° 100° (E) 20:08:37 437.568
AIST 1 05 Sep 19:59:26 20:02:58 24° 270° (W) 20:06:26
RS-15 05 Sep 20:03:23 20:11:40 22° 352° (N) 20:20:08 29.354- 29.394
Cubesat XI-IV 05 Sep 20:03:31 20:06:34 15° 271° (W) 20:09:20 437.490
COMPASS 1 05 Sep 20:06:30 20:09:14 17° 67° (ENE) 20:12:05 437.405
AAUSAT CUBESAT 2 05 Sep 20:11:50 20:14:27 17° 67° (ENE) 20:17:12 437.432
CUBEBUG 2 05 Sep 20:15:09 20:16:28 11° 62° (ENE) 20:18:02 437.445
Oscar 11 05 Sep 20:30:54 20:32:47 13° 64° (ENE) 20:34:52 145.826/435.025
HO-68 05 Sep 20:48:50 20:56:01 86° 254° (WSW) 21:03:16 435.675
PRISM 05 Sep 20:48:57 20:53:00 55° 286° (WNW) 20:57:02 437.425
DOVE 4 05 Sep 20:53:40 20:58:22 64° 260° (W) 21:03:24 437.250
CINEMA 3 05 Sep 20:58:12 21:02:56 65° 75° (ENE) 21:07:54 145.822/145.860
Cosmos 2491 05 Sep 20:58:52 21:07:21 55° 269° (W) 21:15:47 435.465 / 435.565
CUTE 1.7 + AOD 2 05 Sep 21:01:38 21:05:54 70° 259° (WSW) 21:10:11 437.475
YUBILEINY 05 Sep 21:02:52 21:11:37 76° 95° (E) 21:20:28 435.215
GOMX 1 05 Sep 21:08:25 21:12:27 28° 268° (W) 21:16:40 467.674
BRITE-PL 05 Sep 21:09:34 21:12:27 16° 273° (W) 21:15:16 437.365/2234.400
CANX-2 05 Sep 21:16:49 21:20:54 42° 262° (W) 21:24:58 2200.000
ZACube-1 05 Sep 21:23:57 21:27:59 32° 70° (ENE) 21:32:06 437.345
HUMSAT D 05 Sep 21:24:47 21:26:33 13° 64° (ENE) 21:28:30 437.325/437.525
FUNcube-1 05 Sep 21:26:40 21:30:43 33° 71° (ENE) 21:34:51 145.935
SEEDS 05 Sep 21:28:07 21:32:11 43° 262° (W) 21:36:14 437.485
DELFI C3 05 Sep 21:29:57 21:33:34 33° 72° (ENE) 21:37:14 145.870
STRAND 1 05 Sep 21:38:52 21:42:24 19° 296° (WNW) 21:45:46 437.568
COMPASS 1 05 Sep 21:40:38 21:44:37 40° 262° (W) 21:48:35 437.405
UWE-3 05 Sep 21:42:56 21:47:32 67° 75° (ENE) 21:52:12 435.000/436.395/437.385
AAUSAT CUBESAT 2 05 Sep 21:45:47 21:49:45 41° 262° (W) 21:53:43 437.432
CUBEBUG 2 05 Sep 21:47:47 21:52:29 86° 260° (W) 21:57:17 437.445
BEESAT 3 05 Sep 21:53:09 21:56:18 22° 45° (NE) 21:59:28 437.485
Oscar 11 05 Sep 22:04:12 22:08:31 62° 259° (W) 22:12:49 145.826/435.025
DX 1 05 Sep 22:07:01 22:10:12 21° 67° (ENE) 22:13:31 434.975-435.025
UKube-1 05 Sep 22:10:39 22:13:46 20° 67° (ENE) 22:17:01 .
BEESAT 2 05 Sep 22:13:35 22:17:00 26° 47° (NE) 22:20:25 435.950
RS-15 05 Sep 22:19:41 22:29:19 29° 26° (NNE) 22:39:31 29.354- 29.394
ANTELSAT 05 Sep 22:27:46 22:29:39 13° 88° (E) 22:31:46 437.575/2403.000
CUBEBUG 1 05 Sep 22:35:36 22:38:12 16° 66° (ENE) 22:40:59 437.445
CINEMA 3 05 Sep 22:38:07 22:40:42 14° 273° (W) 22:43:04 145.822/145.860
Cosmos 2504 05 Sep 22:39:58 22:47:39 46° 89° (E) 22:55:46 435.465 / 435.565
HO-68 05 Sep 22:41:01 22:44:54 14° 274° (W) 22:48:20 435.675
AISAT 05 Sep 22:51:07 22:55:13 40° 71° (ENE) 22:59:24 437.250
HUMSAT D 05 Sep 22:57:30 23:01:47 64° 259° (W) 23:06:06 437.325/437.525
ESTCUBE 1 05 Sep 22:59:05 23:03:07 35° 71° (ENE) 23:07:14 437.505/2401.250
CUSAT 1 05 Sep 23:00:29 23:04:04 24° 85° (E) 23:08:38 437.405
ZACube-1 05 Sep 23:00:31 23:04:22 25° 267° (W) 23:08:08 437.345
50 SAT 05 Sep 23:02:24 23:06:18 59° 75° (ENE) 23:10:12 437.505
YUBILEINY 05 Sep 23:02:37 23:09:32 24° 297° (WNW) 23:16:10 435.215
SO-50 05 Sep 23:03:03 23:05:57 17° 110° (ESE) 23:09:06 436.795
FUNcube-1 05 Sep 23:03:18 23:07:05 24° 267° (W) 23:10:48 145.935
DELFI C3 05 Sep 23:05:49 23:08:45 19° 268° (W) 23:11:33 145.870
DUCHIFAT 1 05 Sep 23:16:19 23:18:28 14° 90° (E) 23:20:50 145.980
UNISAT 6 05 Sep 23:16:46 23:21:06 44° 98° (E) 23:25:18 437.425
VELOX 1 05 Sep 23:17:18 23:21:41 74° 76° (ENE) 23:26:07 145.980
POLYITAN 1 05 Sep 23:20:25 23:23:08 17° 91° (E) 23:26:00 437.675
POPSAT HIP 1 05 Sep 23:20:42 23:23:23 16° 91° (E) 23:26:12 437.405
UWE-3 05 Sep 23:22:30 23:24:36 12° 273° (W) 23:26:26 435.000/436.395/437.385
AIST 2 05 Sep 23:28:40 23:32:24 31° 49° (NE) 23:36:06 435.215
BEESAT 3 05 Sep 23:30:36 23:34:21 37° 244° (WSW) 23:38:01 437.485
NANOSAT C BR1 05 Sep 23:35:00 23:38:25 23° 94° (E) 23:41:53 145.865
QB50P2 05 Sep 23:38:28 23:42:06 27° 95° (E) 23:45:47 145.880/145.840
DX 1 05 Sep 23:42:15 23:46:15 36° 263° (W) 23:50:15 434.975-435.025
TIGRISAT 05 Sep 23:42:49 23:47:22 82° 103° (ESE) 23:51:46 435.000
SPROUT 05 Sep 23:43:32 23:47:05 26° 69° (ENE) 23:50:45 437.525
UKube-1 05 Sep 23:45:42 23:49:41 36° 262° (W) 23:53:41 .
QB50P1 05 Sep 23:50:47 23:54:44 35° 97° (E) 23:58:41 145.935-145.965
BEESAT 2 05 Sep 23:51:27 23:55:02 30° 245° (WSW) 23:58:33 435.950
AUBIESAT-1 05 Sep 23:56:47 00:00:24 46° 104° (ESE) 00:03:46 437.475
ANTELSAT 06 Sep 00:02:29 00:06:56 58° 287° (WNW) 00:11:15 437.575/2403.000
M-CUBED/EXP-1 PRIME 06 Sep 00:07:45 00:11:34 81° 110° (ESE) 00:15:04 437.505
DANDE 06 Sep 00:09:43 00:13:36 71° 96° (E) 00:18:54 436.750
CUBEBUG 1 06 Sep 00:10:03 00:14:13 47° 261° (W) 00:18:26 437.445
TISAT 1 06 Sep 00:24:09 00:28:05 41° 72° (ENE) 00:32:06 437.305
PCSat 06 Sep 00:27:06 00:31:55 35° 111° (ESE) 00:36:50 145.827
AISAT 06 Sep 00:28:49 00:31:59 19° 268° (W) 00:35:03 437.250
Cosmos 2504 06 Sep 00:32:17 00:40:02 40° 289° (WNW) 00:47:56 435.465 / 435.565
BUGSAT 1 06 Sep 00:32:22 00:36:37 63° 100° (E) 00:40:50 437.445
RS-15 06 Sep 00:32:22 00:44:15 75° 54° (NE) 00:56:33 29.354- 29.394
ESTCUBE 1 06 Sep 00:36:37 00:40:06 21° 267° (W) 00:43:30 437.505/2401.250
SO-50 06 Sep 00:41:17 00:46:03 61° 306° (NW) 00:50:57 436.795
CUSAT 1 06 Sep 00:42:04 00:46:17 35° 292° (WNW) 00:51:42 437.405
BEESAT 06 Sep 00:43:44 00:45:57 14° 63° (ENE) 00:48:24 436.000
DUCHIFAT 1 06 Sep 00:50:28 00:54:38 50° 287° (WNW) 00:58:44 145.980
UNISAT 6 06 Sep 00:54:25 00:57:33 18° 294° (WNW) 01:00:30 437.425
POLYITAN 1 06 Sep 00:55:11 00:59:16 41° 288° (WNW) 01:03:17 437.675
POPSAT HIP 1 06 Sep 00:55:24 00:59:30 42° 288° (WNW) 01:03:31 437.405
AIST 2 06 Sep 01:07:22 01:10:52 26° 246° (WSW) 01:14:16 435.215
SWISSCUBE 06 Sep 01:08:43 01:12:34 26° 67° (ENE) 01:16:30 437.505
NANOSAT C BR1 06 Sep 01:10:29 01:14:16 30° 290° (WNW) 01:17:57 145.865
QB50P2 06 Sep 01:14:19 01:17:56 26° 291° (WNW) 01:21:28 145.880/145.840
SPROUT 06 Sep 01:19:26 01:23:07 27° 265° (W) 01:26:47 437.525
TIGRISAT 06 Sep 01:22:30 01:23:28 10° 299° (WNW) 01:24:10 435.000
Oscar 19 06 Sep 01:23:41 01:26:42 16° 89° (E) 01:29:57 437.125/150
QB50P1 06 Sep 01:27:09 01:30:22 20° 293° (WNW) 01:33:28 145.935-145.965
AUBIESAT-1 06 Sep 01:32:57 01:34:42 13° 302° (WNW) 01:36:15 437.475
ITUPSAT 1 06 Sep 01:49:13 01:53:54 58° 73° (ENE) 01:58:35 437.325
GONETS M04 06 Sep 01:52:32 02:00:08 37° 87° (E) 02:07:57
DANDE 06 Sep 01:56:19 01:58:01 11° 306° (NW) 01:59:36 436.750
KKS-1 06 Sep 01:58:35 02:00:12 12° 63° (ENE) 02:02:03 437.445
VERMONT LUNAR 06 Sep 01:58:58 02:01:49 39° 162° (SSE) 02:04:39 437.305
TISAT 1 06 Sep 02:01:17 02:04:05 17° 269° (W) 02:06:45 437.305
BUGSAT 1 06 Sep 02:09:42 02:11:36 12° 296° (WNW) 02:13:19 437.445
PCSat 06 Sep 02:10:23 02:15:20 35° 309° (NW) 02:20:16 145.827
BEESAT 06 Sep 02:18:31 02:23:16 70° 257° (WSW) 02:28:03 436.000
SO-50 06 Sep 02:25:37 02:27:41 12° 327° (NNW) 02:29:36 436.795
ITAMSAT 1 06 Sep 02:34:59 02:38:29 19° 91° (E) 02:42:11 435.822/435.867
Cosmos 2499 06 Sep 02:36:24 02:41:32 18° 79° (E) 02:47:17 435.465 / 435.565
JAS-2 06 Sep 02:37:00 02:40:03 14° 82° (E) 02:43:19 435.910
RS-15 06 Sep 02:45:50 02:55:59 32° 254° (WSW) 03:05:56 29.354- 29.394
SWISSCUBE 06 Sep 02:45:58 02:50:18 34° 264° (W) 02:54:36 437.505
Gurwin Techsat 1B 06 Sep 02:50:15 02:55:00 33° 96° (E) 02:59:49 435.225
PHONESAT 2.4 06 Sep 02:58:14 03:00:20 16° 150° (SSE) 03:02:29 2401.200-2431.200
STARS 06 Sep 02:58:59 03:02:48 30° 69° (ENE) 03:06:42 437.465
Oscar 19 06 Sep 03:01:25 03:06:34 61° 287° (WNW) 03:11:39 437.125/150
ITUPSAT 1 06 Sep 03:29:27 03:32:13 15° 270° (W) 03:34:46 437.325
KKS-1 06 Sep 03:31:51 03:36:18 72° 258° (WSW) 03:40:48 437.445
VERMONT LUNAR 06 Sep 03:35:04 03:38:05 81° 175° (S) 03:41:04 437.305
GONETS M04 06 Sep 03:48:29 03:56:50 48° 286° (WNW) 04:05:11
O/OREOS (USA 219) 06 Sep 03:49:24 03:53:53 48° 64° (ENE) 03:58:19 437.305
AO-7 06 Sep 03:54:26 04:00:47 25° 92° (E) 04:07:24 29.400- 29.500
ITAMSAT 1 06 Sep 04:13:18 04:18:22 53° 288° (WNW) 04:23:23 435.822/435.867
JAS-2 06 Sep 04:19:35 04:26:22 84° 285° (WNW) 04:32:17 435.910
Cosmos 2499 06 Sep 04:24:58 04:33:36 89° 97° (E) 04:42:34 435.465 / 435.565
MOZHAYETS 4 06 Sep 04:26:47 04:31:19 62° 75° (ENE) 04:35:53
Gurwin Techsat 1B 06 Sep 04:30:17 04:34:57 31° 292° (WNW) 04:39:31 435.225
PHONESAT 2.4 06 Sep 04:34:26 04:37:47 52° 164° (SSE) 04:41:08 2401.200-2431.200
STARS 06 Sep 04:35:32 04:39:15 25° 266° (W) 04:42:53 437.465
HORYU 2 06 Sep 04:35:42 04:39:45 34° 97° (E) 04:43:48 437.375
CUBESAT XI-V 06 Sep 05:02:39 05:04:50 14° 64° (ENE) 05:07:13 437.345
VERMONT LUNAR 06 Sep 05:11:27 05:14:23 51° 194° (SSW) 05:17:16 437.305
O/OREOS (USA 219) 06 Sep 05:29:59 05:32:56 16° 259° (W) 05:35:41 437.305
STRAND 1 06 Sep 05:40:12 05:40:55 10° 59° (ENE) 05:41:55 437.568
